Victoria, British Columbia

1:58 AM PST on December 13, 2017 (GMT -0800)
Victoria International

Weather History for CYYJ - December, 2012

Change the Weather History Date:

Monday, December 24, 2012

  Actual Average Record
Temperature  
Mean Temperature 38 °F -  
Max Temperature 43 °F 44 °F 57 °F (2005)
Min Temperature 34 °F 33 °F 28 °F (2001)
Degree Days  
Heating Degree Days 26    
Moisture  
Dew Point 38 °F    
Average Humidity 92    
Maximum Humidity 100    
Minimum Humidity 81    
Precipitation  
Precipitation 0.16 in 0.19 in - ()
Sea Level Pressure  
Sea Level Pressure 30.06 in    
Wind  
Wind Speed 4 mph ()    
Max Wind Speed 14 mph    
Max Gust Speed -    
Visibility 15.9 miles    
Events Rain    
Averages and records for this station are not official NWS values.
T = Trace of Precipitation, MM = Missing Value Source: Averaged Metar Reports

Daily Weather History Graph

Daily Weather History Graph

Search for Another Location

Airport or City:

Trip Planner

Search our weather history database for the weather conditions in past years. The results will help you decide how hot, cold, wet, or windy it might be!

Date:

Astronomy

Dec. 24, 2012 Rise Set
Actual Time 8:05 AM PST 4:22 PM PST
Civil Twilight 7:28 AM PST 4:59 PM PST
Nautical Twilight 6:47 AM PST 5:39 PM PST
Astronomical Twilight 6:09 AM PST 6:17 PM PST
Moon 1:58 PM PST (12/24) 4:42 AM PST (12/24)
Length of Visible Light 9h 31m
Length of Day
8h 17m
Waxing Gibbous, 89% of the Moon is Illuminated
Dec 24
Waxing Gibbous
Dec 28
Full
Jan 4
Last Quarter
Jan 11
New
Jan 18
First Quarter

Hourly Weather History & Observations

Time (PST) Temp. Windchill Dew Point Humidity Pressure Visibility Wind Dir Wind Speed Gust Speed Precip Events Conditions
12:00 AM 39.2 °F 37.0 °F 39.2 °F 100% 29.83 in 12.0 mi WSW 3.5 mph - N/A   Overcast
1:00 AM 41.0 °F - 39.2 °F 93% 29.86 in 12.0 mi Calm Calm - N/A   Mostly Cloudy
2:00 AM 41.0 °F 35.8 °F 39.2 °F 93% 29.88 in 15.0 mi WNW 8.1 mph - N/A   Overcast
3:00 AM 39.2 °F 34.2 °F 39.2 °F 100% 29.91 in 15.0 mi West 6.9 mph - N/A   Overcast
4:00 AM 39 °F - 38 °F 94% 29.94 in 12 mi West 5.8 mph - -   Partly Cloudy
4:00 AM 39.2 °F 35.9 °F 37.4 °F 93% 29.94 in 12.0 mi West 4.6 mph - N/A   Mostly Cloudy
4:26 AM 35.6 °F 31.7 °F - N/A% - 15.0 mi WSW 4.6 mph - N/A   Scattered Clouds
5:00 AM 35.6 °F - 35.6 °F 100% 29.97 in 15.0 mi WSW 2.3 mph - N/A   Partly Cloudy
6:00 AM 37.4 °F 32.8 °F 37.4 °F 100% 30.01 in 12.0 mi West 5.8 mph - N/A   Mostly Cloudy
7:00 AM 39.2 °F 37.0 °F 37.4 °F 93% 30.03 in 12.0 mi NW 3.5 mph - N/A   Mostly Cloudy
8:00 AM 37.4 °F 33.8 °F 37.4 °F 100% 30.05 in 15.0 mi West 4.6 mph - N/A   Overcast
9:00 AM 39.2 °F 35.9 °F 37.4 °F 93% 30.09 in 15.0 mi West 4.6 mph - N/A   Mostly Cloudy
10:00 AM 39 °F - 38 °F 94% 30.11 in 19 mi West 3.5 mph - -   Mostly Cloudy
10:00 AM 39.2 °F 37.0 °F 37.4 °F 93% 30.11 in 20.0 mi WSW 3.5 mph - N/A   Mostly Cloudy
11:00 AM 39.2 °F 35.9 °F 37.4 °F 93% 30.13 in 20.0 mi West 4.6 mph - N/A   Overcast
12:00 PM 42.8 °F - 39.2 °F 87% 30.13 in 20.0 mi Calm Calm - N/A   Scattered Clouds
1:00 PM 41.0 °F - 37.4 °F 87% 30.15 in 20.0 mi WNW 2.3 mph - N/A   Mostly Cloudy
2:00 PM 42.8 °F - 37.4 °F 81% 30.15 in 20.0 mi Calm Calm - N/A   Mostly Cloudy
3:00 PM 42.8 °F - 37.4 °F 81% 30.15 in 20.0 mi Calm Calm - N/A   Mostly Cloudy
4:00 PM 41 °F - 39 °F 89% 30.15 in 19 mi West 2.3 mph - - Rain Light Rain
4:00 PM 41.0 °F - 37.4 °F 87% 30.15 in 20.0 mi Calm Calm - N/A Rain Light Rain
4:41 PM 41.0 °F 37.1 °F - N/A% - 20.0 mi SW 5.8 mph - N/A Rain Light Rain
5:00 PM 41.0 °F - 39.2 °F 93% 30.15 in 20.0 mi Calm Calm - N/A Rain Light Rain
5:38 PM 41.0 °F - - N/A% - 20.0 mi North 2.3 mph - N/A Rain Light Rain
6:00 PM 41.0 °F 38.0 °F 39.2 °F 93% 30.14 in 15.0 mi East 4.6 mph - N/A Rain Light Rain
6:13 PM 41.0 °F - - N/A% - 15.0 mi North 2.3 mph - N/A Rain Rain
6:44 PM 42.8 °F 38.6 °F - N/A% - 15.0 mi East 6.9 mph - N/A   Overcast
7:00 PM 42.8 °F 38.0 °F 39.2 °F 87% 30.12 in 15.0 mi ESE 8.1 mph - N/A   Overcast
8:00 PM 42.8 °F 38.6 °F 39.2 °F 87% 30.10 in 15.0 mi ESE 6.9 mph - N/A   Overcast
9:00 PM 41.0 °F 37.1 °F 39.2 °F 93% 30.10 in 15.0 mi East 5.8 mph - N/A   Overcast
10:00 PM 42 °F - 38 °F 83% 30.08 in 12 mi East 9.2 mph - -   Partly Cloudy
10:00 PM 42.8 °F 37.0 °F 39.2 °F 87% 30.08 in 12.0 mi East 10.4 mph - N/A   Overcast
11:00 PM 41.0 °F 34.3 °F 39.2 °F 93% 30.06 in 15.0 mi ENE 11.5 mph - N/A   Overcast
11:19 PM 41.0 °F 33.5 °F - N/A% - 12.0 mi ENE 13.8 mph - N/A   Overcast